Regional Weather Roundup
Issued by NWS Newport/Morehead, NC

Current Version | Previous Version | Graphics & Text | Print | Product List | Glossary On
Versions: 1 2 3 4 5 6 7 8 9 10 11 12 13 14 15 16 17 18 19 20 21 22 23 24 25 26 27 28 29 30 31 32 33 34 35 36 37 38 39 40 41 42 43 44 45 46 47 48 49 50
588 ASUS42 KMHX 082225 RWRMHX WEATHER ROUNDUP FOR EASTERN NORTH CAROLINA NATIONAL WEATHER SERVICE NEWPORT/MOREHEAD CITY NC 500 PM EST MON FEB 08 2016 NOTE: "FAIR" INDICATES FEW OR NO CLOUDS BELOW 12,000 FEET WITH NO SIGNIFICANT WEATHER AND/OR OBSTRUCTIONS TO VISIBILITY NCZ015>017-031-032-045>047-102-103-082300- NORTH COAST CITY SKY/WX TMP DP RH WIND PRES REMARKS EDENTON CLOUDY 49 34 56 E6 29.72S ELIZABETH CITY CLOUDY 44 37 76 E10 29.73S KITTY HAWK MOCLDY 43 33 68 CALM 29.74R MANTEO CLOUDY 43 37 78 SE7 29.75S $$ NCZ045>047-081-094-103-104-082300- CENTRAL COAST CITY SKY/WX TMP DP RH WIND PRES REMARKS FRISCO CLEAR 48 32 53 S3 29.75F SWANQUARTER N/A 46 N/A N/A SE6 29.71S $$ NCZ095-097-098-100-101-082300- SOUTHERN COAST CITY SKY/WX TMP DP RH WIND PRES REMARKS BEAUFORT CLEAR 50 37 61 S7 29.72F CEDAR ISLAND N/A 48 N/A N/A SE3G9 29.77S JACKSONVILLE PTCLDY 50 37 61 S8 29.68F PINEY ISLAND PTCLDY N/A N/A N/A S8 29.72F WILMINGTON CLEAR 54 33 45 S9 29.69F $$ NCZ011>013-027>030-043-044-078>080-089-090>093-098-082300- COASTAL PLAIN CITY SKY/WX TMP DP RH WIND PRES REMARKS AHOSKIE CLEAR 47 31 53 SE5 29.69F CLINTON PTCLDY 54 36 49 S5 29.65F ELIZABETHTOWN PTCLDY 55 34 45 S10 29.66F GOLDSBORO CLEAR 54 32 43 S5 29.63F GREENVILLE CLEAR 52 32 46 S7 29.71F HAVELOCK MOCLDY 50 33 52 S8 29.71F KENANSVILLE N/A 52 31 43 S3 29.66F KINSTON PTCLDY 54 32 43 S9 29.67F NEW BERN CLOUDY 51 31 46 S10 29.70F RICHLANDS MOCLDY 52 34 50 SE10 29.68F ROCKY MOUNT MOCLDY 52 31 44 SE7 29.65F WASHINGTON PTCLDY 51 32 47 CALM 29.68F WHITEVILLE PTCLDY 55 34 45 S12 29.67S $$ AMZ130-135-150-152-154-156-158-170-250-252-270-ANZ085-086-088-633-658-670-082300- MARINE OBSERVATIONS STATION/POSITION TIME TEMP WIND PRES WAVE SWELL AIR SEA DIR/SP/G HT/PER HT/PER (UTC) (F) (DEG/KT/KT) (MB) (FT/S) (FT/S) CHESAPEAKE LIGHT 2200 41 80/ 11/ 12 1007.5 64 E VA BEACH 2150 44 52 340/ 8/ 10 1006.6 15/14 15/14 DUCK 2200 43 130/ 7/ 8 1006.8 2 E DUCK 2211 44 N/A 13/13 10/13 OREGON INLET 2200 43 45 110/ 5/ 7 1007.7 13E OREGON INLT 2200 47 N/A 20/17 18/17 HATTERAS CG 2200 48 51 170/ 4/ 6 1006.9 DIAMOND BUOY 2150 50 74 340/ 4/ 8 1007.8 12/16 11/16 CAPE LOOKOUT NOT AVBL BEAUFORT LAB 2200 50 46 180/ 7/ 8 1005.1 30 SE NEW RVR IN 2208 58 62 1005.8 30 SE NEW RVR IN 2155 62 N/A 6/14 5/14 27 SE WRIGHTSVLE 2208 56 61 250/ 21/ 29 1005.2 5 SE WRIGHTSVLE 2108 52 52 210/ 14/ 17 1006.4 225 S CAPE HAT 2150 63 69 250/ 21/ 29 N/A 15/15 13/15 41 SE CHARLESTON 2150 59 65 220/ 25/ 31 1006.3 8/ 6 3/16 $$

USA.gov is the U.S. government's official web portal to all federal, state and local government web resources and services.